This demonstration page uses our WeatherBlox Daily Observations layout. Learn more.

Left ArrowRight Arrow

39.29038, -76.61219

Hourly Observations for February 7, 2021

Temp ( °F °C ) Dew Point ( °F °C ) Humidity (%) Winds ( mph kmh ) Pressure ( in mb ) Visibility ( mi km ) Precip ( " mm )
12:54 am 00:54 Cloudy 39 3.9 26 -3.3 60 60 ENE 3 6 30.06 1018 10 16 N/A
1:54 am 01:54 Cloudy 40 4.4 28 -2.2 63 63 ESE 6 9 30.02 1017 10 16 N/A
2:54 am 02:54 Cloudy 41 5 28 -2.2 60 60 SE 5 7 30.00 1016 10 16 N/A
3:54 am 03:54 Cloudy with Light Rain 41 5 28 -2.2 60 60 SSE 6 9 30.01 1016 10 16 0.00 0.00
4:44 am 04:44 Cloudy with Light Rain 40 4.4 33 0.6 77 77 S 9 15 30.01 1016 10 16 0.02 0.51
4:54 am 04:54 Cloudy with Light Rain 39 3.9 33 0.6 79 79 SSE 5 7 29.98 1015 8 13 0.02 0.51
5:23 am 05:23 Cloudy with Light Rain/Snow 39 3.9 34 1.1 82 82 N N/A 29.97 1015 8 13 0.01 0.25
5:54 am 05:54 Cloudy with Light Rain/Snow 38 3.3 35 1.7 89 89 NNW 3 6 29.95 1014 8 13 0.02 0.51
6:22 am 06:22 Cloudy with Light Rain/Snow 38 3.3 34 1.1 86 86 VRB 6 9 29.96 1015 5 8 0.03 0.76
6:42 am 06:42 Cloudy with Light Wintry Mix 37 2.8 33 0.6 86 86 NE 6 9 29.94 1014 4 6 0.07 1.78
6:54 am 06:54 Cloudy with Light Wintry Mix 36 2.2 33 0.6 89 89 NNE 3 6 29.93 1014 3 5 0.09 2.29
7:54 am 07:54 Cloudy with Light Wintry Mix 35 1.7 32 undefined 89 89 N 3 6 29.94 1014 3 5 0.05 1.27
8:30 am 08:30 Cloudy with Light Wintry Mix 33 0.6 31 -0.6 92 92 NNW 3 6 29.96 1015 1 2 0.08 2.03
8:54 am 08:54 Cloudy with Light Wintry Mix 33 0.6 31 -0.6 92 92 N 5 7 29.94 1014 2 2 0.12 3.05
9:16 am 09:16 Cloudy with Light Snow 34 1.1 31 -0.6 89 89 N 6 9 29.93 1014 2 3 0.02 0.51
9:33 am 09:33 Cloudy with Light Wintry Mix 34 1.1 31 -0.6 89 89 NE 7 11 29.92 1013 3 5 0.03 0.76
9:54 am 09:54 Cloudy with Light Wintry Mix 34 1.1 32 undefined 92 92 N N/A 29.91 1013 3 5 0.04 1.02
10:28 am 10:28 Cloudy with Light Snow 34 1.1 32 undefined 92 92 N N/A 29.91 1013 3 4 0.02 0.51
10:54 am 10:54 Cloudy with Light Wintry Mix 34 1.1 32 undefined 92 92 NW 5 7 29.91 1013 3 4 0.02 0.51
11:08 am 11:08 Cloudy with Light Rain 34 1.1 32 undefined 92 92 NW 5 7 29.91 1013 3 5 0.01 0.25
11:54 am 11:54 Cloudy with Light Rain 35 1.7 33 0.6 93 93 N N/A 29.88 1012 5 8 0.04 1.02
12:30 pm 12:30 Cloudy with Light Rain 37 2.8 34 1.1 89 89 NNW 7 11 29.88 1012 8 13 0.01 0.25
12:54 pm 12:54 Cloudy with Light Rain 37 2.8 34 1.1 89 89 NW 8 13 29.86 1011 8 13 0.02 0.51
1:46 pm 13:46 Cloudy 38 3.3 35 1.7 89 89 NW 8 13 29.88 1012 10 16 0.00 0.00
1:54 pm 13:54 Cloudy 38 3.3 35 1.7 89 89 NW 7 11 29.87 1012 10 16 0.00 0.00
2:32 pm 14:32 Cloudy 40 4.4 35 1.7 83 83 N 7 11 29.87 1011 10 16 N/A
2:41 pm 14:41 Mostly Cloudy 41 5 36 2.2 82 82 NNW 6 9 29.87 1011 10 16 N/A
2:54 pm 14:54 Mostly Cloudy 42 5.6 35 1.7 76 76 VRB 7 11 29.87 1012 10 16 N/A
3:54 pm 15:54 Mostly Cloudy 42 5.6 33 0.6 71 71 NW 9 15 29.90 1012 10 16 N/A
4:54 pm 16:54 Mostly Cloudy 40 4.4 31 -0.6 70 70 WNW 13 20 29.92 1013 10 16 N/A
5:54 pm 17:54 Partly Cloudy 38 3.3 22 -5.6 52 52 NW 14 22 29.97 1015 10 16 N/A
6:54 pm 18:54 Mostly Clear 35 1.7 16 -8.9 46 46 WNW 13 20 30.02 1017 10 16 N/A
7:54 pm 19:54 Clear 32 undefined 13 -10.6 45 45 WNW 10 17 30.09 1019 10 16 N/A
8:54 pm 20:54 Clear 31 -0.6 12 -11.1 45 45 WNW 9 15 30.13 1020 10 16 N/A
9:54 pm 21:54 Clear 29 -1.7 13 -10.6 51 51 WNW 8 13 30.16 1021 10 16 N/A
10:54 pm 22:54 Clear 28 -2.2 11 -11.7 49 49 WNW 5 7 30.19 1023 10 16 N/A
11:54 pm 23:54 Clear 27 -2.8 11 -11.7 51 51 WNW 6 9 30.22 1023 10 16 N/A

Powered by AerisWeather